FALCON 9 DEB, 52893

Orbit data source: Space-Track

FALCON 9 DEB, 52893 is space debris in LEO originally from a launch on Sun, 19 Jun 2022 UTC launched from the Air Force Eastern Test Range (AFETR). Debris objects in space refer to the collection of defunct objects orbiting the Earth. Examples of debris include non-operational satellites, rocket bodies, and fragments generated from explosions, collisions, or faulty payload assembly.

Loading next visibility...
Identifier
52893, 2022-064F
Orbit
LEO
Country
Flag of USUS
Related business
Manufacturer
SpaceX/Seattle
Mission
Spacecraft
Bus & Motor
Unknown
Mass
~50 kg wet, ~50 kg dry
Launch date (UTC)
2022-06-19 (4 years ago)
Launch vehicle
Unknown
Launch site
Air Force Eastern Test Range (AFETR)
Object type
Payload
Rocket body
Debris
Shape & HBR
Cyl, 3.5 m
Radar Cross Section
0.110 m², Medium (>0.1 m² and < 1m²)

Expand to show TLE details & history
Last TLE update: 8 hours ago

TLE from 8 hours ago
0 FALCON 9 DEB
1 52893U 22064F   26035.72522602  .00008365  00000-0  25217-3 0  9995
2 52893  52.9875 232.6315 0008378 100.6160 259.5784 15.35164102159370
Epoch: 2026-02-04T17:24Z
TLE epoch observation values (Epoch: 2026-02-04T17:24:19.528Z)
Latitude
-0.00005°
Longitude
-163.33759°
Altitude
462.357 km
Speed
7.636 km/s
True Right ascension
15h 30m 31s
True Declination
0° 00' 00"
Sunlit
Object was in daylight at epoch
Visualization orbit readout
Latitude
Unknown
Longitude
Unknown
Altitude
Unknown
Speed
Unknown
Apparent Right ascension
Unknown
Apparent Declination
Unknown
Sunlit
N/A
Visualization observer readout
Local Sidereal Time
03:53:10
Azimuth
Unknown
Elevation
Unknown
Doppler factor
Unknown
Orbital elements
Apogee altitude
466.448 km
Perigee altitude
454.988 km
Semi-major axis
6,838.855 km
Eccentricity
0.00084
Inclination
52.9875°
RAAN
232.6315°
Arg. of periapsis
100.616°
True anomaly
259.484°
Mean anomaly
259.5784°
Eccentric anomaly
259.5312°
Mean motion
3.83767 °/min
Orbital period
93.81 mins
BSTAR
0.00025217
Loading maneuver chart data...
Computing Atmospheric mass density...
Loading historical data...
Loading historical data...
Loading historical data...
Loading historical data...
Loading historical data...
Loading historical data...
Loading historical data...
Other satellites on launch #64 in the year 2022 (2022-06-19 UTC)

Documentation

Showing up to 5 results
|